Flag for U.S.A. Weather past 2 weeks in Menominee, Michigan, U.S.A.

Now
73 °F

Overcast.


Feels Like: 73 °F
Forecast: 68 / 81 °F
Wind: 10 mph from Southwest

Location: Menominee Weather Reporting Station

Current Time: Jul 29, 2015 at 5:16:22 AM

Latest Report: Jul 29, 2015 at 4:35 AM


Visibility: 10 mi

Pressure: 29.83 "Hg

Humidity: 83%

Dew point: 68 °F

Location of MenomineeLocation

Historic Weather in Menominee — Graph

°F

Menominee temperature yesterday

Maximum temperature yesterday: 84 °F (at 2:15 PM)
Minimum temperature yesterday: 61 °F (at 5:55 AM)
Average temperature yesterday: 74 °F

Past Weeks' High & Low Weather Summary

 TemperatureHumidityPressure
High88 °F (Jul 18, 4:35 PM)94% (Jul 16, 4:55 AM)30.09 "Hg (Jul 16, 4:55 AM)
Low46 °F (Jul 15, 5:15 AM)34% (Jul 21, 5:15 PM)29.53 "Hg (Jul 14, 4:15 AM)
Average71 °F66%29.87 "Hg
* Reported Jul 14 4:15 AM — Jul 29 4:15 AM, Menominee, Weather by CustomWeather, © 2015

Note: Actual official high and low records may vary slightly from our data, if they occured in-between our weather recording intervals... More about our weather records

Advertising

Menominee weather history for previous 24 hours

 ConditionsComfort  
Time TempWeatherWind HumidityBarometerVisibility
4:15 AM
Wed, Jul 29
73 °FMostly cloudy.9 mph83%29.83 "Hg10 mi
3:55 AM73 °FPassing clouds.7 mph78%29.83 "Hg10 mi
3:35 AM73 °FClear.7 mph78%29.83 "Hg10 mi
3:15 AM73 °FClear.7 mph78%29.83 "Hg10 mi
2:35 AM73 °FClear.7 mph78%29.83 "Hg5 mi
2:15 AM73 °FClear.7 mph78%29.84 "Hg10 mi
1:55 AM72 °FClear.8 mph83%29.85 "Hg10 mi
1:35 AM73 °FClear.6 mph74%29.86 "Hg10 mi
1:15 AM73 °FClear.3 mph74%29.87 "Hg10 mi
12:55 AM73 °FClear.7 mph74%29.87 "Hg10 mi
12:35 AM73 °FClear.7 mph74%29.89 "Hg10 mi
12:15 AM73 °FClear.10 mph74%29.89 "Hg10 mi
11:55 PM
Tue, Jul 28
73 °FClear.8 mph74%29.89 "Hg10 mi
11:35 PM73 °FClear.7 mph74%29.89 "Hg10 mi
10:55 PM75 °FClear.7 mph69%29.88 "Hg10 mi
10:15 PM75 °FClear.7 mph65%29.88 "Hg10 mi
9:55 PM75 °FClear.7 mph65%29.89 "Hg10 mi
9:35 PM75 °FClear.6 mph65%29.90 "Hg10 mi
9:15 PM75 °FClear.7 mph65%29.90 "Hg10 mi
8:55 PM75 °FClear.6 mph65%29.90 "Hg10 mi
8:35 PM75 °FClear.7 mph65%29.90 "Hg10 mi
7:55 PM79 °FSunny.6 mph58%29.89 "Hg10 mi
7:35 PM79 °FSunny.9 mph58%29.89 "Hg10 mi
7:15 PM79 °FSunny.9 mph58%29.89 "Hg10 mi
6:55 PM79 °FSunny.9 mph58%29.89 "Hg10 mi
6:35 PM79 °FSunny.9 mph58%29.90 "Hg10 mi
6:15 PM79 °FSunny.12 mph58%29.90 "Hg10 mi
5:55 PM79 °FSunny.13 mph58%29.90 "Hg10 mi
5:35 PM79 °FSunny.12 mph54%29.91 "Hg10 mi
5:15 PM79 °FSunny.7 mph51%29.91 "Hg10 mi
4:55 PM81 °FPassing clouds.15 mph51%29.90 "Hg10 mi
4:35 PM82 °FSunny.10 mph48%29.90 "Hg10 mi
4:15 PM82 °FSunny.12 mph51%29.90 "Hg10 mi
3:55 PM82 °FPassing clouds.13 mph51%29.91 "Hg10 mi
3:35 PM82 °FSunny.13 mph55%29.91 "Hg10 mi
3:15 PM82 °FSunny.12 mph55%29.91 "Hg10 mi
2:55 PM82 °FSunny.13 mph55%29.92 "Hg10 mi
2:35 PM84 °FSunny.13 mph51%29.91 "Hg10 mi
2:15 PM84 °FSunny.10 mph55%29.91 "Hg10 mi
1:55 PM82 °FSunny.10 mph55%29.92 "Hg10 mi
1:35 PM82 °FSunny.10 mph55%29.92 "Hg10 mi
1:15 PM82 °FSunny.12 mph55%29.94 "Hg10 mi
12:55 PM82 °FSunny.9 mph55%29.96 "Hg10 mi
12:35 PM82 °FSunny.13 mph55%29.97 "Hg10 mi
12:15 PM82 °FSunny.12 mph55%29.98 "Hg10 mi
11:55 AM82 °FSunny.12 mph51%29.98 "Hg10 mi
11:35 AM82 °FSunny.12 mph55%30.00 "Hg10 mi
11:15 AM82 °FSunny.13 mph55%30.00 "Hg10 mi
10:55 AM81 °FSunny.10 mph58%30.00 "Hg10 mi
10:35 AM81 °FSunny.9 mph54%30.00 "Hg10 mi
10:15 AM81 °FSunny.9 mph54%29.99 "Hg10 mi
9:55 AM81 °FSunny.8 mph54%30.00 "Hg10 mi
9:35 AM81 °FSunny.9 mph54%30.00 "Hg10 mi
9:15 AM81 °FSunny.7 mph51%30.00 "Hg10 mi
8:55 AM79 °FSunny.6 mph54%30.00 "Hg10 mi
8:35 AM77 °FSunny.6 mph57%30.00 "Hg10 mi
8:15 AM75 °FSunny.8 mph65%30.00 "Hg10 mi
7:55 AM75 °FSunny.6 mph65%30.00 "Hg10 mi
7:35 AM72 °FSunny.5 mph78%29.99 "Hg10 mi
7:15 AM70 °FSunny.No wind78%30.00 "Hg8 mi
6:55 AM64 °FSunny.No wind94%30.00 "Hg7 mi
6:35 AM63 °FSunny.No wind88%30.00 "Hg5 mi
6:15 AM63 °FSunny.No wind83%30.00 "Hg3 mi
5:55 AM61 °FSunny.No wind88%29.99 "Hg4 mi
5:35 AM63 °FDense fog.No wind83%29.99 "Hg1 mi
5:15 AM63 °FClear.No wind83%29.99 "Hg2 mi
Weather by CustomWeather, © 2015

See weather overviewHow to use our weather pages